sat.trackr.live / text

‹ back to catalog

ARKTIKA-M 1

NORAD 47719 · 2021-016A

PAYLOAD ACTIVE UNKNOWN

§ Identity

Operator
Country
CIS
Launch date
2021-02-28
Launch site
TYMSC
Launch vehicle
Mass (kg)
RCS (m²)

Purposes: earth_obs

External: N2YO · Heavens-Above · Gunter

§ Orbital elements

Epoch: 2026-07-25T20:56:12.649632Z

Period
717.82 min
Inclination
63.2598°
Eccentricity
0.7301001
Mean motion
2.00607275 rev/d
Perigee alt
789.5 km
Apogee alt
39,567.3 km
Semi-major
26,556.5 km
B*
0.0000e+0
RAAN
51.9767°
Arg perigee
270.1217°
Mean anomaly
14.4714°
Rev number
3,956

§ Raw data

ARKTIKA-M 11 47719U 21016A   26206.87236863 -.00000386  00000+0  00000+0 0  99932 47719  63.2598  51.9767 7301001 270.1217  14.4714  2.00607275 39563

JSON: /api/v1/satellites/47719 · /tle

For live sub-satellite position, see the globe view (requires WebGL).

§ Visibility from observer

Set your observer location to see the next 7 days of passes ≥ 10°. The values pass through the URL so the page stays shareable.

No JS? Fill the form by hand. The geolocation button needs JavaScript.

§ Radio — SatNOGS DB

ModeDescriptionDownlinkUplink
FM Mode L - DCP 1.703 GHz
FM Mode X - RDAS 7.865 GHz
FM SARSAT L-Band 1.545 GHz
FM Mode L - GGAK-VE (inactive) 1.703 GHz

4 transmitters · refreshed weekly from db.satnogs.org